Overview Statistics Trail Chart Weather Telemetry Raw packets
 

This is the latest recevied weather packets stored in our database for station/object KD4PMP. If no packets are shown the sender has not sent any weather packets the latest 10 day(s).

<< 16 17 18 19 20 21 22 >>
Time Temp. Humidity Pressure Rain* Wind** Luminosity Snow
1788372833 34.44° C 54% 1016.4 hPa 0 mm - - -
1788372226 34.44° C 55% 1016.5 hPa 0 mm - - -
1788371620 35° C 55% 1016.7 hPa 0 mm - - -
1788371013 35° C 54% 1016.9 hPa 0 mm - - -
1788370407 35.56° C 53% 1017 hPa 0 mm - - -
1788369801 36.11° C 54% 1017.1 hPa 0 mm - - -
1788369195 35.56° C 53% 1017.1 hPa 0 mm - - -
1788368588 35.56° C 52% 1017.4 hPa 0 mm - - -
1788367982 35° C 51% 1017.6 hPa 0 mm - - -
1788367375 35.56° C 52% 1017.7 hPa 0 mm - - -
1788366769 35° C 52% 1018 hPa 0 mm - - -
1788366162 35° C 51% 1017.8 hPa 0 mm - - -
1788365556 34.44° C 54% 1018 hPa 0 mm - - -
1788364950 34.44° C 54% 1018.1 hPa 0 mm - - -
1788364343 34.44° C 56% 1018.1 hPa 0 mm - - -
1788363737 34.44° C 55% 1018.1 hPa 0 mm - - -
1788363130 33.89° C 57% 1018 hPa 0 mm - - -
1788362524 33.33° C 58% 1018.1 hPa 0 mm - - -
1788361918 33.33° C 59% 1018.2 hPa 0 mm - - -
1788361312 32.78° C 61% 1018.1 hPa 0 mm - - -
1788360705 32.22° C 63% 1018.1 hPa 0 mm - - -
1788360098 31.67° C 65% 1018.1 hPa 0 mm - - -
1788359492 31.67° C 64% 1018.2 hPa 0 mm - - -
1788358907 31.11° C 68% 1018.2 hPa 0 mm - - -
1788358280 30.56° C 69% 1018.2 hPa 0 mm - - -

* Rain latest hour (hover to see other rain measurements)
** Current wind speed in m/s (hover to see current wind gust speed)